Mount Sterling, KY

9:06 PM EDT on August 20, 2017 (GMT -0400)
Mount Sterling-Montgomery County

Weather History for KIOB - July, 2012

Change the Weather History Date:

Thursday, July 26, 2012

  Actual Average Record
Temperature  
Mean Temperature 80 °F -  
Max Temperature 91 °F 85 °F 89 °F (2016)
Min Temperature 69 °F 67 °F 53 °F (2013)
Cooling Degree Days 15    
Growing Degree Days 30 (Base 50)    
Moisture  
Dew Point 72 °F    
Average Humidity 76    
Maximum Humidity 94    
Minimum Humidity 55    
Precipitation  
Precipitation 0.00 in - - ()
Sea Level Pressure  
Sea Level Pressure 29.85 in    
Wind  
Wind Speed 8 mph ()    
Max Wind Speed 16 mph    
Max Gust Speed 54 mph    
Visibility 9.9 miles    
Events Rain    
Averages and records for this station are not official NWS values.
T = Trace of Precipitation, MM = Missing Value Source: Averaged Metar Reports

Daily Weather History Graph

Daily Weather History Graph

Search for Another Location

Airport or City:

Trip Planner

Search our weather history database for the weather conditions in past years. The results will help you decide how hot, cold, wet, or windy it might be!

Date:

Astronomy

Jul. 26, 2012 Rise Set
Actual Time 6:34 AM EDT 8:50 PM EDT
Civil Twilight 6:04 AM EDT 9:19 PM EDT
Nautical Twilight 5:27 AM EDT 9:56 PM EDT
Astronomical Twilight 4:47 AM EDT 10:36 PM EDT
Moon 2:37 PM EDT (7/26) 12:24 AM EDT (7/26)
Length of Visible Light 15h 15m
Length of Day
14h 16m
First Quarter, 53% of the Moon is Illuminated
Jul 26
First Quarter
Aug 1
Full
Aug 9
Last Quarter
Aug 17
New
Aug 24
First Quarter

Hourly Weather History & Observations

Time (EDT) Temp. Heat Index Dew Point Humidity Pressure Visibility Wind Dir Wind Speed Gust Speed Precip Events Conditions
12:15 AM 80.6 °F 85.4 °F 73.4 °F 79% 29.89 in 10.0 mi WSW 6.9 mph - N/A   Clear
12:35 AM 80.6 °F 85.4 °F 73.4 °F 79% 29.88 in 10.0 mi WSW 8.1 mph - N/A   Clear
12:55 AM 80.6 °F 85.4 °F 73.4 °F 79% 29.88 in 10.0 mi SW 8.1 mph - N/A   Clear
1:15 AM 78.8 °F - 73.4 °F 83% 29.87 in 10.0 mi SW 8.1 mph - N/A   Clear
1:35 AM 78.8 °F - 71.6 °F 78% 29.86 in 10.0 mi WSW 9.2 mph 16.1 mph N/A   Clear
1:55 AM 78.8 °F - 71.6 °F 78% 29.85 in 10.0 mi WSW 9.2 mph - N/A   Clear
2:15 AM 78.8 °F - 71.6 °F 78% 29.85 in 10.0 mi WSW 10.4 mph - N/A   Clear
2:35 AM 78.8 °F - 71.6 °F 78% 29.85 in 10.0 mi WSW 8.1 mph 16.1 mph N/A   Clear
2:55 AM 78.8 °F - 71.6 °F 78% 29.85 in 10.0 mi WSW 9.2 mph - N/A   Clear
3:15 AM 78.8 °F - 71.6 °F 78% 29.85 in - WSW 9.2 mph - N/A   Clear
3:35 AM 78.8 °F - 71.6 °F 78% 29.86 in 10.0 mi WSW 8.1 mph - N/A   Clear
3:55 AM 78.8 °F - 71.6 °F 78% 29.86 in 10.0 mi WSW 8.1 mph - N/A   Clear
4:15 AM 77.0 °F - 71.6 °F 83% 29.87 in 10.0 mi WSW 8.1 mph - N/A   Clear
4:35 AM 77.0 °F - 71.6 °F 83% 29.87 in - WSW 6.9 mph - N/A   Clear
4:55 AM 77.0 °F - 71.6 °F 83% 29.87 in 10.0 mi WSW 8.1 mph - N/A   Clear
5:15 AM 77.0 °F - 71.6 °F 83% 29.87 in 10.0 mi WSW 8.1 mph - N/A   Clear
5:35 AM 77.0 °F - 71.6 °F 83% 29.88 in 10.0 mi WSW 8.1 mph - N/A   Clear
5:55 AM 75.2 °F - 71.6 °F 89% 29.88 in 10.0 mi WSW 8.1 mph - N/A   Clear
6:15 AM 75.2 °F - 71.6 °F 89% 29.88 in 10.0 mi WSW 6.9 mph - N/A   Clear
6:35 AM 73.4 °F - 71.6 °F 94% 29.88 in 10.0 mi WSW 8.1 mph - N/A   Clear
6:55 AM 75.2 °F - 71.6 °F 89% 29.89 in 10.0 mi WSW 5.8 mph - N/A   Clear
7:15 AM 75.2 °F - 71.6 °F 89% 29.89 in 10.0 mi WSW 8.1 mph - N/A   Clear
7:35 AM 77.0 °F - 71.6 °F 83% 29.89 in 10.0 mi WSW 8.1 mph - N/A   Clear
7:55 AM 77.0 °F - 71.6 °F 83% 29.89 in 10.0 mi WSW 6.9 mph - N/A   Clear
8:15 AM 77.0 °F - 71.6 °F 83% 29.89 in 10.0 mi WSW 9.2 mph - N/A   Clear
8:35 AM 78.8 °F - 73.4 °F 83% 29.90 in 10.0 mi WSW 9.2 mph - N/A   Clear
9:15 AM 80.6 °F 85.4 °F 73.4 °F 79% 29.89 in 10.0 mi WSW 10.4 mph 18.4 mph N/A   Clear
9:35 AM 80.6 °F 85.4 °F 73.4 °F 79% 29.89 in 10.0 mi WSW 10.4 mph 19.6 mph N/A   Clear
9:55 AM 82.4 °F 88.2 °F 73.4 °F 74% 29.89 in 10.0 mi WSW 9.2 mph - N/A   Clear
10:15 AM 82.4 °F 88.2 °F 73.4 °F 74% 29.88 in 10.0 mi West 11.5 mph 19.6 mph N/A   Clear
10:35 AM 84.2 °F 90.9 °F 73.4 °F 70% 29.89 in 10.0 mi West 10.4 mph 18.4 mph N/A   Clear
10:55 AM 84.2 °F 90.9 °F 73.4 °F 70% 29.88 in 10.0 mi WSW 10.4 mph 17.3 mph N/A   Clear
11:15 AM 86.0 °F 93.4 °F 73.4 °F 66% 29.88 in 10.0 mi WSW 9.2 mph 18.4 mph N/A   Clear
11:35 AM 86.0 °F 93.4 °F 73.4 °F 66% 29.88 in 10.0 mi WSW 11.5 mph 18.4 mph N/A   Clear
11:55 AM 87.8 °F 97.6 °F 75.2 °F 66% 29.87 in 10.0 mi SW 11.5 mph 18.4 mph N/A   Clear
12:15 PM 87.8 °F 95.6 °F 73.4 °F 62% 29.86 in 10.0 mi SW 11.5 mph 17.3 mph N/A   Clear
12:35 PM 87.8 °F 95.6 °F 73.4 °F 62% 29.86 in 10.0 mi WSW 9.2 mph 20.7 mph N/A   Clear
12:55 PM 87.8 °F 95.6 °F 73.4 °F 62% 29.86 in 10.0 mi WSW 9.2 mph 19.6 mph N/A   Clear
1:15 PM 89.6 °F 99.8 °F 75.2 °F 62% 29.86 in 10.0 mi West 13.8 mph 20.7 mph N/A   Clear
1:35 PM 89.6 °F 99.8 °F 75.2 °F 62% 29.86 in 10.0 mi West 11.5 mph 18.4 mph N/A   Scattered Clouds
1:55 PM 87.8 °F 95.6 °F 73.4 °F 62% 29.86 in 10.0 mi West 11.5 mph 16.1 mph N/A   Scattered Clouds
2:15 PM 89.6 °F 99.8 °F 75.2 °F 62% 29.85 in 10.0 mi WSW 12.7 mph 18.4 mph N/A   Scattered Clouds
2:35 PM 89.6 °F 99.8 °F 75.2 °F 62% 29.85 in 10.0 mi West 11.5 mph 17.3 mph N/A   Clear
2:55 PM 89.6 °F 99.8 °F 75.2 °F 62% 29.84 in 10.0 mi WSW 12.7 mph 20.7 mph N/A   Scattered Clouds
3:35 PM 91.4 °F 100.1 °F 73.4 °F 55% 29.83 in 10.0 mi WSW 10.4 mph 20.7 mph N/A   Scattered Clouds
3:55 PM 91.4 °F 100.1 °F 73.4 °F 55% 29.81 in 10.0 mi West 13.8 mph 21.9 mph N/A   Scattered Clouds
4:15 PM 91.4 °F 102.5 °F 75.2 °F 59% 29.80 in 10.0 mi WSW 11.5 mph 21.9 mph N/A   Scattered Clouds
4:35 PM 91.4 °F 100.1 °F 73.4 °F 55% 29.79 in 10.0 mi WSW 11.5 mph 19.6 mph N/A   Scattered Clouds
4:55 PM 91.4 °F 102.5 °F 75.2 °F 59% 29.78 in 10.0 mi WSW 13.8 mph 19.6 mph N/A   Scattered Clouds
5:15 PM 91.4 °F 100.1 °F 73.4 °F 55% 29.77 in 10.0 mi WSW 16.1 mph 24.2 mph N/A   Scattered Clouds
5:35 PM 91.4 °F 100.1 °F 73.4 °F 55% 29.78 in 10.0 mi WSW 12.7 mph 25.3 mph N/A   Scattered Clouds
5:55 PM 89.6 °F 98.2 °F 73.4 °F 59% 29.79 in 10.0 mi WSW 13.8 mph 19.6 mph N/A   Scattered Clouds
6:15 PM 87.8 °F 95.6 °F 73.4 °F 62% 29.75 in 10.0 mi WSW 11.5 mph 20.7 mph N/A   Scattered Clouds
6:35 PM 87.8 °F 95.6 °F 73.4 °F 62% 29.79 in 10.0 mi WSW 8.1 mph - N/A   Clear
6:55 PM 78.8 °F - 69.8 °F 74% 29.84 in 10.0 mi North 9.2 mph 32.2 mph N/A   Mostly Cloudy
7:15 PM 73.4 °F - 71.6 °F 94% 29.81 in 10.0 mi SW 3.5 mph - N/A   Mostly Cloudy
7:35 PM 71.6 °F - 64.4 °F 78% 29.80 in 2.5 mi NNW 6.9 mph 54.1 mph N/A Rain Rain
7:55 PM 71.6 °F - 64.4 °F 78% 29.80 in 10.0 mi SSW 8.1 mph - N/A   Mostly Cloudy
8:15 PM 69.8 °F - 66.2 °F 88% 29.82 in 10.0 mi WSW 8.1 mph - N/A   Scattered Clouds
8:35 PM 71.6 °F - 68.0 °F 88% 29.82 in 10.0 mi WSW 4.6 mph - N/A   Mostly Cloudy
8:55 PM 73.4 °F - 69.8 °F 88% 29.83 in 10.0 mi WSW 8.1 mph - N/A   Overcast
9:15 PM 75.2 °F - 71.6 °F 89% 29.83 in 10.0 mi SSW 6.9 mph - N/A   Mostly Cloudy
9:35 PM 73.4 °F - 71.6 °F 94% 29.83 in 10.0 mi SW 6.9 mph - N/A   Scattered Clouds
9:55 PM 75.2 °F - 71.6 °F 89% 29.85 in 10.0 mi SW 6.9 mph - N/A   Mostly Cloudy
10:15 PM 75.2 °F - 71.6 °F 89% 29.84 in 10.0 mi Calm Calm - N/A   Mostly Cloudy
10:35 PM 75.2 °F - 73.4 °F 94% 29.84 in 10.0 mi Calm Calm - N/A   Mostly Cloudy
10:55 PM 75.2 °F - 73.4 °F 94% 29.86 in 10.0 mi Calm Calm - N/A   Mostly Cloudy
11:15 PM 75.2 °F - 73.4 °F 94% 29.86 in 10.0 mi ESE 4.6 mph - N/A Rain Light Rain
11:35 PM 73.4 °F - 71.6 °F 94% 29.86 in 10.0 mi East 4.6 mph - N/A   Overcast
11:55 PM 73.4 °F - 71.6 °F 94% 29.85 in 10.0 mi SSE 5.8 mph - N/A Rain Light Rain